GW0468 Weather Reports


Display with metric or nautical units.
time (UTC)temp
F
wind
direction
speed
MPH
gust
MPH
rain 1hr
in
rain 24hr
in
rain mn
in
humidity
%
barometer
mb
20220528015902 83 125 5.0 7.0 0.00 0.00 0.00 69 1010.0
20220528015401 83 109 5.0 7.0 0.00 0.00 0.00 68 1009.9
20220528014902 83 107 4.0 6.0 0.00 0.00 0.00 67 1009.9
20220528014401 84 106 2.0 4.0 0.00 0.00 0.00 66 1009.8
20220528013901 84 124 3.0 5.0 0.00 0.00 0.00 65 1009.8
20220528013408 84 138 2.0 6.0 0.00 0.00 0.00 64 1009.8
20220528012902 85 118 3.0 6.0 0.00 0.00 0.00 63 1009.7
20220528012358 85 116 4.0 6.0 0.00 0.00 0.00 61 1009.7
20220528011901 85 79 3.0 5.0 0.00 0.00 0.00 60 1009.7
20220528011359 86 94 2.0 6.0 0.00 0.00 0.00 58 1009.6
20220528010901 87 96 4.0 6.0 0.00 0.00 0.00 56 1009.4
20220528010359 87 110 2.0 4.0 0.00 0.00 0.00 54 1009.5
20220528005903 88 83 3.0 6.0 0.00 0.00 0.00 52 1009.5
20220528005358 88 80 3.0 10.0 0.00 0.00 0.00 51 1009.4
20220528004901 89 109 4.0 10.0 0.00 0.00 0.00 50 1009.3
20220528004359 89 125 4.0 10.0 0.00 0.00 0.00 48 1009.2
20220528003859 90 71 4.0 9.0 0.00 0.00 0.00 48 1009.3
20220528003358 90 114 5.0 9.0 0.00 0.00 0.00 47 1009.2
20220528002900 90 114 5.0 11.0 0.00 0.00 0.00 46 1009.1
20220528002359 91 141 5.0 11.0 0.00 0.00 0.00 45 1009.2
20220528001859 91 125 4.0 14.0 0.00 0.00 0.00 46 1009.2
20220528001358 91 117 7.0 14.0 0.00 0.00 0.00 45 1009.1
20220528000859 91 93 6.0 14.0 0.00 0.00 0.00 45 1009.0
20220528000357 92 118 8.0 14.0 0.00 0.00 0.00 44 1009.0
20220527235900 92 127 7.0 19.0 0.00 0.00 0.00 44 1009.0
20220527235356 92 85 11.0 19.0 0.00 0.00 0.00 43 1009.1
20220527234900 93 124 9.0 14.0 0.00 0.00 0.00 44 1009.0
20220527234357 93 110 6.0 13.0 0.00 0.00 0.00 47 1009.0
20220527233900 93 130 6.0 16.0 0.00 0.00 0.00 47 1008.9
20220527233356 93 111 8.0 18.0 0.00 0.00 0.00 46 1009.0
20220527232900 94 125 8.0 18.0 0.00 0.00 0.00 47 1009.0
20220527232356 94 149 6.0 13.0 0.00 0.00 0.00 47 1008.9
20220527231858 94 141 6.0 13.0 0.00 0.00 0.00 48 1009.0
20220527231356 94 121 8.0 14.0 0.00 0.00 0.00 46 1009.1
20220527230857 94 138 8.0 14.0 0.00 0.00 0.00 47 1009.1
20220527230357 94 111 5.0 18.0 0.00 0.00 0.00 47 1009.2
20220527225858 94 144 8.0 18.0 0.00 0.00 0.00 47 1009.2
20220527225400 95 113 9.0 15.0 0.00 0.00 0.00 48 1009.2
20220527224858 95 97 6.0 13.0 0.00 0.00 0.00 47 1009.3
20220527224356 96 127 7.0 16.0 0.00 0.00 0.00 47 1009.3
20220527223857 96 85 10.0 16.0 0.00 0.00 0.00 46 1009.3
20220527223355 96 135 6.0 14.0 0.00 0.00 0.00 46 1009.3
20220527222857 97 65 7.0 14.0 0.00 0.00 0.00 45 1009.4
20220527222355 97 85 4.0 16.0 0.00 0.00 0.00 46 1009.4
20220527221858 97 114 8.0 16.0 0.00 0.00 0.00 44 1009.4
20220527221357 98 125 3.0 10.0 0.00 0.00 0.00 41 1009.5
20220527220857 98 73 5.0 9.0 0.00 0.00 0.00 39 1009.5
20220527220354 98 154 2.0 11.0 0.00 0.00 0.00 38 1009.5
20220527215857 98 131 6.0 11.0 0.00 0.00 0.00 36 1009.6
20220527215356 98 131 4.0 10.0 0.00 0.00 0.00 39 1009.7
20220527214855 98 140 5.0 10.0 0.00 0.00 0.00 40 1009.7
20220527214357 98 117 5.0 9.0 0.00 0.00 0.00 40 1009.9
20220527213855 98 89 4.0 10.0 0.00 0.00 0.00 37 1009.9
20220527213355 98 140 5.0 10.0 0.00 0.00 0.00 37 1010.0
20220527212857 98 147 3.0 11.0 0.00 0.00 0.00 38 1010.1
20220527212355 98 35 5.0 11.0 0.00 0.00 0.00 37 1010.1
20220527211854 98 31 2.0 4.0 0.00 0.00 0.00 37 1010.2
20220527211353 98 17 2.0 7.0 0.00 0.00 0.00 38 1010.3
20220527210855 98 159 3.0 7.0 0.00 0.00 0.00 38 1010.3
20220527210352 98 237 2.0 6.0 0.00 0.00 0.00 37 1010.4
20220527205855 98 166 2.0 9.0 0.00 0.00 0.00 39 1010.5
20220527205354 97 61 2.0 9.0 0.00 0.00 0.00 40 1010.6
20220527204856 97 147 4.0 14.0 0.00 0.00 0.00 39 1010.6
20220527204355 97 138 5.0 14.0 0.00 0.00 0.00 38 1010.7
20220527203856 98 130 4.0 9.0 0.00 0.00 0.00 38 1010.7
20220527203352 98 137 1.0 7.0 0.00 0.00 0.00 39 1010.8
20220527202855 96 72 2.0 11.0 0.00 0.00 0.00 39 1010.9
20220527202352 97 87 5.0 11.0 0.00 0.00 0.00 38 1011.0
20220527201852 97 171 2.0 6.0 0.00 0.00 0.00 39 1011.1
20220527201356 97 210 2.0 10.0 0.00 0.00 0.00 39 1011.1
20220527200853 96 51 2.0 10.0 0.00 0.00 0.00 40 1011.2
20220527200353 96 125 3.0 10.0 0.00 0.00 0.00 39 1011.3
20220527195857 97 93 5.0 11.0 0.00 0.00 0.00 40 1011.3
20220527195354 97 140 3.0 11.0 0.00 0.00 0.00 40 1011.4
20220527194852 96 30 2.0 4.0 0.00 0.00 0.00 39 1011.4
20220527194350 96 37 2.0 7.0 0.00 0.00 0.00 41 1011.6
20220527193853 95 17 3.0 12.0 0.00 0.00 0.00 42 1011.6
20220527193351 95 76 7.0 13.0 0.00 0.00 0.00 42 1011.6
20220527192855 96 125 4.0 13.0 0.00 0.00 0.00 42 1011.8
20220527192350 96 100 5.0 10.0 0.00 0.00 0.00 41 1011.8
20220527191854 96 72 3.0 10.0 0.00 0.00 0.00 40 1011.9
20220527191350 96 118 5.0 10.0 0.00 0.00 0.00 43 1011.9
20220527190857 95 303 1.0 7.0 0.00 0.00 0.00 41 1012.0
20220527190351 95 192 3.0 9.0 0.00 0.00 0.00 42 1012.1
20220527185853 96 152 5.0 9.0 0.00 0.00 0.00 42 1012.2
20220527185351 96 223 6.0 9.0 0.00 0.00 0.00 40 1012.3
20220527184851 96 206 0.0 6.0 0.00 0.00 0.00 43 1012.4
20220527184351 95 142 1.0 9.0 0.00 0.00 0.00 41 1012.5
20220527183851 94 226 4.0 9.0 0.00 0.00 0.00 45 1012.6
20220527183350 94 220 5.0 12.0 0.00 0.00 0.00 44 1012.6
20220527182852 94 183 5.0 12.0 0.00 0.00 0.00 43 1012.7
20220527182349 94 244 5.0 13.0 0.00 0.00 0.00 43 1012.8
20220527181851 94 271 4.0 13.0 0.00 0.00 0.00 44 1012.9
20220527181346 93 134 3.0 10.0 0.00 0.00 0.00 45 1013.0
20220527180851 93 265 3.0 13.0 0.00 0.00 0.00 45 1013.1
20220527180348 93 144 4.0 13.0 0.00 0.00 0.00 47 1013.2
20220527175853 93 240 4.0 9.0 0.00 0.00 0.00 45 1013.2
20220527175349 93 200 2.0 9.0 0.00 0.00 0.00 46 1013.2
20220527174851 92 154 3.0 9.0 0.00 0.00 0.00 47 1013.3
20220527174348 93 224 4.0 9.0 0.00 0.00 0.00 48 1013.3
20220527173849 91 286 4.0 9.0 0.00 0.00 0.00 51 1013.4
20220527173348 91 238 5.0 9.0 0.00 0.00 0.00 48 1013.4
20220527172851 91 219 5.0 7.0 0.00 0.00 0.00 50 1013.5
20220527172349 91 21 2.0 6.0 0.00 0.00 0.00 50 1013.6
20220527171849 91 168 3.0 9.0 0.00 0.00 0.00 53 1013.6
20220527171349 91 250 4.0 9.0 0.00 0.00 0.00 52 1013.7
20220527170849 90 131 1.0 6.0 0.00 0.00 0.00 55 1013.7
20220527170349 90 135 4.0 6.0 0.00 0.00 0.00 56 1013.8
20220527165851 90 68 4.0 6.0 0.00 0.00 0.00 56 1013.9
20220527165348 90 76 4.0 6.0 0.00 0.00 0.00 56 1013.9
20220527164847 89 149 2.0 4.0 0.00 0.00 0.00 56 1013.9
20220527164347 89 133 2.0 5.0 0.00 0.00 0.00 60 1014.0
20220527163849 89 172 2.0 5.0 0.00 0.00 0.00 62 1014.0
20220527163347 88 86 4.0 6.0 0.00 0.00 0.00 61 1013.9
20220527162851 89 114 3.0 7.0 0.00 0.00 0.00 60 1013.9
20220527162346 89 243 3.0 7.0 0.00 0.00 0.00 62 1014.0
20220527161849 88 147 2.0 7.0 0.00 0.00 0.00 63 1014.0
20220527161346 87 161 3.0 5.0 0.00 0.00 0.00 65 1014.0
20220527160847 87 245 0.0 6.0 0.00 0.00 0.00 67 1014.0
20220527160347 86 286 3.0 6.0 0.00 0.00 0.00 64 1014.0
20220527155848 86 151 1.0 5.0 0.00 0.00 0.00 67 1014.0
20220527155347 86 241 2.0 5.0 0.00 0.00 0.00 68 1014.1
20220527154847 85 196 1.0 9.0 0.00 0.00 0.00 68 1014.1
20220527154349 85 216 4.0 9.0 0.00 0.00 0.00 69 1014.2
20220527153846 84 204 3.0 7.0 0.00 0.00 0.00 72 1014.1
20220527153345 84 312 2.0 7.0 0.00 0.00 0.00 71 1014.2
20220527152847 84 300 2.0 7.0 0.00 0.00 0.00 72 1014.3
20220527152345 83 281 1.0 7.0 0.00 0.00 0.00 73 1014.3
20220527151847 83 221 4.0 7.0 0.00 0.00 0.00 73 1014.2
20220527151345 83 228 3.0 5.0 0.00 0.00 0.00 75 1014.3
20220527150847 82 197 0.0 7.0 0.00 0.00 0.00 77 1014.2
20220527150345 82 252 4.0 7.0 0.00 0.00 0.00 78 1014.3
20220527145850 82 151 3.0 6.0 0.00 0.00 0.00 77 1014.2
20220527145344 81 271 3.0 9.0 0.00 0.00 0.00 79 1014.3
20220527144846 81 231 2.0 9.0 0.00 0.00 0.00 80 1014.2
20220527144345 81 259 2.0 5.0 0.00 0.00 0.00 82 1014.3
20220527143844 80 228 4.0 5.0 0.00 0.00 0.00 82 1014.3
20220527143348 80 209 1.0 5.0 0.00 0.00 0.00 82 1014.3
20220527142846 80 204 1.0 7.0 0.00 0.00 0.00 83 1014.1
20220527142343 80 250 2.0 7.0 0.00 0.00 0.00 84 1014.1
20220527141844 80 220 2.0 4.0 0.00 0.00 0.00 86 1014.1
20220527141344 79 219 1.0 4.0 0.00 0.00 0.00 89 1014.1
20220527140846 78 258 0.0 4.0 0.00 0.00 0.00 91 1014.1
20220527140343 78 207 2.0 4.0 0.00 0.00 0.00 91 1014.1
20220527135847 77 248 0.0 4.0 0.00 0.00 0.00 93 1014.1
20220527135343 76 228 0.0 5.0 0.00 0.00 0.00 94 1014.0
20220527134845 76 254 2.0 5.0 0.00 0.00 0.00 95 1014.0
20220527134343 76 269 0.0 4.0 0.00 0.00 0.00 96 1014.0
20220527133846 75 259 1.0 4.0 0.00 0.00 0.00 97 1014.0
20220527133342 75 219 1.0 3.0 0.00 0.00 0.00 97 1013.8
20220527132845 74 235 0.0 3.0 0.00 0.00 0.00 97 1013.8
20220527132344 74 245 2.0 3.0 0.00 0.00 0.00 97 1013.8
20220527131845 74 295 0.0 1.0 0.00 0.00 0.00 97 1013.7
20220527131341 74 235 0.0 2.0 0.00 0.00 0.00 97 1013.6
20220527130844 73 281 0.0 3.0 0.00 0.00 0.00 97 1013.6
20220527130343 73 259 1.0 3.0 0.00 0.00 0.00 97 1013.7
20220527125845 73 300 0.0 3.0 0.00 0.00 0.00 97 1013.5
20220527125344 73 295 1.0 2.0 0.00 0.00 0.00 97 1013.6
20220527124842 73 213 0.0 0.0 0.00 0.00 0.00 97 1013.4
20220527124341 73 196 0.0 0.0 0.00 0.00 0.00 97 1013.3
20220527123842 72 197 0.0 0.0 0.00 0.00 0.00 97 1013.3
20220527123338 72 197 0.0 0.0 0.00 0.00 0.00 97 1013.2
20220527122841 72 197 0.0 0.0 0.00 0.00 0.00 97 1013.2
20220527122341 72 197 0.0 0.0 0.00 0.00 0.00 97 1013.2
20220527121843 71 196 0.0 0.0 0.00 0.00 0.00 97 1013.3
20220527121341 71 196 0.0 0.0 0.00 0.00 0.00 97 1013.2
20220527120843 71 196 0.0 0.0 0.00 0.00 0.00 97 1013.2
20220527120341 71 196 0.0 0.0 0.00 0.00 0.00 97 1013.1
20220527115843 71 196 0.0 0.0 0.00 0.00 0.00 97 1013.0
20220527115340 71 196 0.0 0.0 0.00 0.00 0.00 97 1012.9
20220527114839 71 196 0.0 0.0 0.00 0.00 0.00 97 1012.9
20220527114341 71 196 0.0 0.0 0.00 0.00 0.00 97 1012.9
20220527113841 71 196 0.0 0.0 0.00 0.00 0.00 97 1012.9
20220527113344 71 196 0.0 0.0 0.00 0.00 0.00 97 1012.9
20220527112842 71 196 0.0 0.0 0.00 0.00 0.00 97 1012.9
20220527112340 71 196 0.0 0.0 0.00 0.00 0.00 97 1012.7
20220527111841 71 196 0.0 0.0 0.00 0.00 0.00 97 1012.8
20220527111340 72 196 0.0 0.0 0.00 0.00 0.00 97 1012.7
20220527110840 72 196 0.0 0.0 0.00 0.00 0.00 97 1012.7
20220527110337 72 196 0.0 0.0 0.00 0.00 0.00 97 1012.6
20220527105842 72 196 0.0 0.0 0.00 0.00 0.00 97 1012.6
20220527105339 72 192 0.0 2.0 0.00 0.00 0.00 97 1012.6
20220527104842 72 192 0.0 2.0 0.00 0.00 0.00 97 1012.4
20220527104338 72 197 0.0 2.0 0.00 0.00 0.00 97 1012.4
20220527103839 72 202 0.0 2.0 0.00 0.00 0.00 97 1012.4
20220527103338 72 204 0.0 5.0 0.00 0.00 0.00 97 1012.3
20220527102839 72 204 2.0 5.0 0.00 0.00 0.00 97 1012.3
20220527102340 72 166 2.0 4.0 0.00 0.00 0.00 97 1012.2
20220527101839 72 157 2.0 4.0 0.00 0.00 0.00 97 1012.1
20220527101339 72 234 2.0 4.0 0.00 0.00 0.00 97 1012.1
20220527100839 72 182 1.0 2.0 0.00 0.00 0.00 97 1012.1
20220527100339 72 188 1.0 3.0 0.00 0.00 0.00 97 1012.0
20220527095840 72 206 0.0 3.0 0.00 0.00 0.00 97 1012.0
20220527095337 72 148 1.0 4.0 0.00 0.00 0.00 97 1011.9
20220527094838 72 173 1.0 4.0 0.00 0.00 0.00 97 1011.9
20220527094337 72 175 2.0 5.0 0.00 0.00 0.00 97 1011.9
20220527093838 72 188 2.0 6.0 0.00 0.00 0.00 97 1011.9
20220527093337 72 137 2.0 6.0 0.00 0.00 0.00 97 1011.8
20220527092842 72 147 3.0 6.0 0.00 0.00 0.00 97 1011.7
20220527092337 72 155 2.0 6.0 0.00 0.00 0.00 97 1011.7
20220527091839 72 169 2.0 5.0 0.00 0.00 0.00 97 1011.7
20220527091336 72 148 2.0 5.0 0.00 0.00 0.00 96 1011.6
20220527090839 72 183 2.0 5.0 0.00 0.00 0.00 96 1011.6
20220527090335 72 149 2.0 5.0 0.00 0.00 0.00 96 1011.6
20220527085837 72 154 2.0 4.0 0.00 0.00 0.00 96 1011.5
20220527085333 71 140 2.0 4.0 0.00 0.00 0.00 96 1011.7
20220527084838 71 134 1.0 4.0 0.00 0.00 0.00 96 1011.7
20220527084338 71 169 2.0 4.0 0.00 0.00 0.00 96 1011.7
20220527083836 71 151 2.0 4.0 0.00 0.00 0.00 96 1011.7
20220527083335 72 171 1.0 2.0 0.00 0.00 0.00 96 1011.8
20220527082839 72 138 0.0 4.0 0.00 0.00 0.00 96 1011.8
20220527082335 72 155 0.0 6.0 0.00 0.00 0.00 96 1011.8
20220527081838 72 192 2.0 6.0 0.00 0.00 0.00 96 1011.7
20220527081335 72 158 2.0 4.0 0.00 0.00 0.00 96 1011.7
20220527080837 72 192 2.0 4.0 0.00 0.00 0.00 96 1011.7
20220527080335 71 196 1.0 3.0 0.00 0.00 0.00 96 1011.7
20220527075840 71 151 1.0 3.0 0.00 0.00 0.00 95 1011.8
20220527075335 71 134 1.0 4.0 0.00 0.00 0.00 95 1011.7
20220527074836 72 155 1.0 4.0 0.00 0.00 0.00 95 1011.7
20220527074334 72 175 2.0 4.0 0.00 0.00 0.00 95 1011.8
20220527073835 72 142 2.0 4.0 0.00 0.00 0.00 95 1011.7
20220527073333 72 148 1.0 4.0 0.00 0.00 0.00 95 1011.8
20220527072835 72 137 2.0 4.0 0.00 0.00 0.00 95 1011.8
20220527072335 72 142 2.0 6.0 0.00 0.00 0.00 95 1011.8
20220527071835 72 140 2.0 6.0 0.00 0.00 0.00 95 1011.8
20220527071335 72 144 2.0 4.0 0.00 0.00 0.00 95 1011.9
20220527070835 72 130 1.0 4.0 0.00 0.00 0.00 95 1011.9
20220527070334 72 138 2.0 4.0 0.00 0.00 0.00 95 1011.8
20220527065836 71 125 2.0 4.0 0.00 0.00 0.00 94 1011.8
20220527065334 72 152 2.0 3.0 0.00 0.00 0.00 94 1011.8
20220527064834 72 128 1.0 3.0 0.00 0.00 0.00 94 1011.8
20220527064333 72 145 2.0 3.0 0.00 0.00 0.00 94 1011.9
20220527063838 72 145 1.0 2.0 0.00 0.00 0.00 94 1011.9
20220527063333 72 123 1.0 2.0 0.00 0.00 0.00 93 1011.9
20220527062836 72 125 1.0 2.0 0.00 0.00 0.00 93 1011.9
20220527062332 72 147 0.0 1.0 0.00 0.00 0.00 93 1011.9
20220527061834 72 145 0.0 1.0 0.00 0.00 0.00 93 1012.0
20220527061332 72 151 0.0 2.0 0.00 0.00 0.00 93 1012.0
20220527060834 73 144 0.0 2.0 0.00 0.00 0.00 93 1012.0
20220527060331 73 134 1.0 2.0 0.00 0.00 0.00 92 1012.0
20220527055835 73 142 1.0 3.0 0.00 0.00 0.00 92 1012.0
20220527055334 73 137 1.0 3.0 0.00 0.00 0.00 92 1012.0
20220527054833 73 131 1.0 3.0 0.00 0.00 0.00 92 1011.9
20220527054331 73 140 2.0 4.0 0.00 0.00 0.00 92 1011.9
20220527053835 73 141 2.0 4.0 0.00 0.00 0.00 91 1011.8
20220527053331 74 147 2.0 5.0 0.00 0.00 0.00 91 1011.9
20220527052832 74 135 3.0 5.0 0.00 0.00 0.00 91 1011.9
20220527052329 74 123 2.0 5.0 0.00 0.00 0.00 91 1011.8
20220527051832 74 138 3.0 5.0 0.00 0.00 0.00 91 1011.7
20220527051331 74 138 2.0 6.0 0.00 0.00 0.00 90 1011.7
20220527050834 74 137 3.0 6.0 0.00 0.00 0.00 90 1011.8
20220527050331 74 130 3.0 6.0 0.00 0.00 0.00 90 1011.8
20220527045834 74 133 3.0 6.0 0.00 0.00 0.00 90 1011.8
20220527045330 74 125 3.0 6.0 0.00 0.00 0.00 90 1011.7
20220527044831 74 130 3.0 6.0 0.00 0.00 0.00 90 1011.8
20220527044331 74 137 4.0 6.0 0.00 0.00 0.00 90 1011.7
20220527043831 74 131 3.0 6.0 0.00 0.00 0.00 90 1011.7
20220527043331 74 134 2.0 5.0 0.00 0.00 0.00 89 1011.6
20220527042833 74 137 3.0 4.0 0.00 0.00 0.00 89 1011.6
20220527042329 74 138 2.0 4.0 0.00 0.00 0.00 89 1011.6
20220527041830 75 133 2.0 5.0 0.00 0.00 0.00 88 1011.4
20220527041331 75 144 2.0 5.0 0.00 0.00 0.00 88 1011.5
20220527040831 75 138 2.0 5.0 0.00 0.00 0.00 88 1011.5
20220527040329 75 127 2.0 6.0 0.00 0.00 0.00 87 1011.5
20220527035831 75 116 4.0 6.0 0.00 0.00 0.00 87 1011.4
20220527035327 75 137 3.0 9.0 0.00 0.00 0.00 86 1011.4
20220527034832 76 123 3.0 9.0 0.00 0.00 0.00 86 1011.3
20220527034331 76 141 3.0 7.0 0.00 0.00 0.00 85 1011.3
20220527033830 76 171 3.0 6.0 0.00 0.00 0.00 85 1011.3
20220527033329 76 151 2.0 6.0 0.00 0.00 0.00 84 1011.4
20220527032831 76 145 3.0 6.0 0.00 0.00 0.00 84 1011.2
20220527032327 76 125 3.0 6.0 0.00 0.00 0.00 83 1011.2
20220527031828 76 135 4.0 7.0 0.00 0.00 0.00 83 1011.2
20220527031329 77 141 4.0 7.0 0.00 0.00 0.00 82 1011.1
20220527030827 77 137 5.0 7.0 0.00 0.00 0.00 81 1011.0
20220527030329 77 142 4.0 7.0 0.00 0.00 0.00 80 1011.0
20220527025831 77 145 5.0 7.0 0.00 0.00 0.00 80 1010.9
20220527025327 77 142 4.0 9.0 0.00 0.00 0.00 79 1010.8
20220527024830 78 135 4.0 9.0 0.00 0.00 0.00 79 1010.8
20220527024327 78 148 4.0 11.0 0.00 0.00 0.00 78 1010.8
20220527023830 78 135 6.0 12.0 0.00 0.00 0.00 77 1010.7
20220527023327 78 121 5.0 12.0 0.00 0.00 0.00 76 1010.7
20220527022832 78 114 6.0 11.0 0.00 0.00 0.00 76 1010.7
20220527022327 79 149 6.0 11.0 0.00 0.00 0.00 75 1010.6
20220527021828 79 148 6.0 10.0 0.00 0.00 0.00 74 1010.5
20220527021326 79 134 3.0 7.0 0.00 0.00 0.00 74 1010.5
20220527020828 79 114 4.0 12.0 0.00 0.00 0.00 73 1010.4
20220527020325 80 121 5.0 12.0 0.00 0.00 0.00 72 1010.4